Ambler, AK

4:13 AM AKDT on July 28, 2017 (GMT -0800)
Ambler

Weather History for PAFM - November, 2011

Change the Weather History Date:

Saturday, November 26, 2011

  Actual Average Record
Temperature  
Mean Temperature -26 °F -  
Max Temperature -23 °F 6 °F 32 °F (2002)
Min Temperature -29 °F 0 °F -44 °F (1986)
Degree Days  
Heating Degree Days 91    
Moisture  
Dew Point -29 °F    
Average Humidity 83    
Maximum Humidity 83    
Minimum Humidity 83    
Precipitation  
Precipitation 0.00 in - - ()
Sea Level Pressure  
Sea Level Pressure 29.93 in    
Wind  
Wind Speed 0 mph (NNE)    
Max Wind Speed 5 mph    
Max Gust Speed -    
Visibility 10 miles    
Events      
Averages and records for this station are not official NWS values.
T = Trace of Precipitation, MM = Missing Value Source: NWS Daily Summary

Daily Weather History Graph

Daily Weather History Graph

Search for Another Location

Airport or City:

Trip Planner

Search our weather history database for the weather conditions in past years. The results will help you decide how hot, cold, wet, or windy it might be!

Date:

Astronomy

Nov. 26, 2011 Rise Set
Actual Time 11:19 AM AKST 3:16 PM AKST
Civil Twilight 9:52 AM AKST 4:44 PM AKST
Nautical Twilight 8:36 AM AKST 5:59 PM AKST
Astronomical Twilight 7:31 AM AKST 7:05 PM AKST
Moon 2:09 PM AKST (11/26) 3:55 PM AKST (11/26)
Length of Visible Light 6h 52m
Length of Day
3h 57m
Waxing Crescent, 4% of the Moon is Illuminated
Nov 26
Waxing Crescent
Dec 2
First Quarter
Dec 10
Full
Dec 17
Last Quarter
Dec 24
New

Hourly Weather History & Observations

Time (AKST) Temp. Windchill Dew Point Humidity Pressure Visibility Wind Dir Wind Speed Gust Speed Precip Events Conditions
12:16 AM -25.6 °F - - N/A% 29.98 in 10.0 mi Calm Calm - N/A   Clear
12:36 AM -25.6 °F - - N/A% 29.98 in 10.0 mi Calm Calm - N/A   Clear
12:56 AM -25.6 °F - - N/A% 29.98 in 10.0 mi Calm Calm - N/A   Clear
1:16 AM -25.6 °F - - N/A% 29.99 in 10.0 mi Calm Calm - N/A   Clear
1:36 AM -25.6 °F - - N/A% 29.98 in 10.0 mi Calm Calm - N/A   Clear
1:56 AM -25.6 °F - - N/A% 29.98 in 10.0 mi Calm Calm - N/A   Clear
2:16 AM -25.6 °F - - N/A% 29.98 in 10.0 mi Calm Calm - N/A   Clear
2:36 AM -25.6 °F - - N/A% 29.98 in 10.0 mi Calm Calm - N/A   Clear
3:16 AM -25.6 °F - - N/A% 29.98 in 10.0 mi Calm Calm - N/A   Scattered Clouds
3:36 AM -25.6 °F - - N/A% 29.98 in 10.0 mi Calm Calm - N/A   Scattered Clouds
3:56 AM -25.6 °F - - N/A% 29.98 in 10.0 mi Calm Calm - N/A   Clear
4:16 AM -23.8 °F - - N/A% 29.98 in 10.0 mi Calm Calm - N/A   Clear
4:36 AM -25.6 °F - - N/A% 29.98 in 10.0 mi Calm Calm - N/A   Clear
4:56 AM -25.6 °F - - N/A% 29.97 in 10.0 mi Calm Calm - N/A   Clear
5:16 AM -23.8 °F - - N/A% 29.97 in 10.0 mi Calm Calm - N/A   Clear
5:36 AM -27.4 °F -41.9 °F - N/A% 29.97 in 10.0 mi NNE 4.6 mph - N/A   Clear
5:56 AM -27.4 °F - - N/A% 29.96 in 10.0 mi Calm Calm - N/A   Clear
6:16 AM -27.4 °F - - N/A% 29.97 in 10.0 mi Calm Calm - N/A   Clear
6:36 AM -25.6 °F - - N/A% 29.97 in 10.0 mi Calm Calm - N/A   Clear
6:56 AM -27.4 °F - - N/A% 29.97 in 10.0 mi Calm Calm - N/A   Clear
7:16 AM -27.4 °F - - N/A% 29.97 in 10.0 mi Calm Calm - N/A   Clear
7:36 AM -25.6 °F -37.1 °F - N/A% 29.96 in 10.0 mi North 3.5 mph - N/A   Clear
7:56 AM -25.6 °F - - N/A% 29.95 in 10.0 mi Calm Calm - N/A   Clear
8:16 AM -25.6 °F - - N/A% 29.96 in 10.0 mi Calm Calm - N/A   Clear
8:36 AM -25.6 °F - - N/A% 29.95 in 10.0 mi Calm Calm - N/A   Clear
8:56 AM -25.6 °F - - N/A% 29.95 in 10.0 mi Calm Calm - N/A   Clear
9:16 AM -25.6 °F - - N/A% 29.95 in 10.0 mi Calm Calm - N/A   Clear
9:36 AM -25.6 °F - - N/A% 29.95 in 10.0 mi Calm Calm - N/A   Clear
9:56 AM -25.6 °F - - N/A% 29.95 in 10.0 mi Calm Calm - N/A   Clear
10:16 AM -27.4 °F - - N/A% 29.95 in 10.0 mi Calm Calm - N/A   Clear
10:36 AM -27.4 °F - - N/A% 29.95 in 10.0 mi Calm Calm - N/A   Clear
10:56 AM -25.6 °F -37.1 °F - N/A% 29.95 in 10.0 mi NNE 3.5 mph - N/A   Clear
11:16 AM -25.6 °F - - N/A% 29.94 in 10.0 mi Calm Calm - N/A   Clear
11:36 AM -25.6 °F - - N/A% 29.93 in 10.0 mi Calm Calm - N/A   Clear
11:56 AM -23.8 °F - - N/A% 29.93 in 10.0 mi Calm Calm - N/A   Clear
12:16 PM -25.6 °F - - N/A% 29.93 in 10.0 mi Calm Calm - N/A   Clear
12:36 PM -27.4 °F - - N/A% 29.94 in 10.0 mi Calm Calm - N/A   Clear
12:56 PM -27.4 °F - - N/A% 29.93 in 10.0 mi Calm Calm - N/A   Clear
1:16 PM -27.4 °F - - N/A% 29.92 in 10.0 mi Calm Calm - N/A   Clear
1:36 PM -25.6 °F - - N/A% 29.92 in 10.0 mi Calm Calm - N/A   Clear
1:56 PM -27.4 °F - - N/A% 29.92 in 10.0 mi Calm Calm - N/A   Clear
2:16 PM -27.4 °F - - N/A% 29.92 in 10.0 mi Calm Calm - N/A   Clear
2:36 PM -27.4 °F - - N/A% 29.92 in 10.0 mi Calm Calm - N/A   Clear
3:16 PM -29.2 °F - - N/A% 29.90 in 10.0 mi Calm Calm - N/A   Clear
3:36 PM -27.4 °F - - N/A% 29.89 in 10.0 mi Calm Calm - N/A   Clear
3:56 PM -27.4 °F - - N/A% 29.89 in 10.0 mi Calm Calm - N/A   Clear
4:16 PM -27.4 °F - - N/A% 29.89 in 10.0 mi Calm Calm - N/A   Clear
4:36 PM -27.4 °F - - N/A% 29.88 in 10.0 mi Calm Calm - N/A   Clear
4:56 PM -27.4 °F - - N/A% 29.89 in 10.0 mi Calm Calm - N/A   Clear
5:16 PM -27.4 °F - - N/A% 29.88 in 10.0 mi Calm Calm - N/A   Clear
5:36 PM -27.4 °F - - N/A% 29.88 in 10.0 mi Calm Calm - N/A   Clear
5:56 PM -27.4 °F - - N/A% 29.87 in 10.0 mi Calm Calm - N/A   Clear
6:16 PM -27.4 °F - - N/A% 29.87 in 10.0 mi Calm Calm - N/A   Clear
6:36 PM -29.2 °F - - N/A% 29.86 in 10.0 mi Calm Calm - N/A   Clear
6:56 PM -27.4 °F - - N/A% 29.85 in 10.0 mi Calm Calm - N/A   Clear
7:16 PM -25.6 °F - -29.2 °F 83% 29.85 in 10.0 mi Calm Calm - N/A   Clear
7:36 PM -25.6 °F - - N/A% 29.85 in 10.0 mi Calm Calm - N/A   Clear
7:56 PM -25.6 °F - - N/A% 29.84 in 10.0 mi Calm Calm - N/A   Partly Cloudy
8:16 PM -25.6 °F - - N/A% 29.83 in 10.0 mi Calm Calm - N/A   Mostly Cloudy
8:36 PM -27.4 °F - - N/A% 29.83 in 10.0 mi Calm Calm - N/A   Overcast
8:56 PM -29.2 °F - - N/A% 29.82 in 10.0 mi Calm Calm - N/A   Mostly Cloudy
9:16 PM -25.6 °F - - N/A% 29.82 in 10.0 mi Calm Calm - N/A   Partly Cloudy
9:36 PM -25.6 °F - - N/A% 29.81 in 10.0 mi Calm Calm - N/A   Partly Cloudy
9:56 PM -25.6 °F - - N/A% 29.81 in 10.0 mi Calm Calm - N/A   Partly Cloudy
10:16 PM -31.0 °F - - N/A% 29.81 in 10.0 mi Calm Calm - N/A   Scattered Clouds
10:36 PM -31.0 °F - - N/A% 29.81 in 10.0 mi Calm Calm - N/A   Partly Cloudy
10:56 PM -29.2 °F - - N/A% 29.80 in 10.0 mi Calm Calm - N/A   Mostly Cloudy
11:16 PM -25.6 °F - -25.6 °F 100% 29.80 in 10.0 mi Calm Calm - N/A   Overcast
11:36 PM -23.8 °F - - N/A% 29.79 in 10.0 mi Calm Calm - N/A   Overcast
11:56 PM -25.6 °F - - N/A% 29.79 in 10.0 mi Calm Calm - N/A   Overcast